This demonstration page uses our WeatherBlox Daily Observations layout. Learn more.

36.17497, -115.13722

Hourly Observations for July 19, 2018

Temp ( °F °C ) Dew Point ( °F °C ) Humidity (%) Winds ( mph kmh ) Pressure ( in mb ) Visibility ( mi km ) Precip ( " mm )
12:53 am 00:53 Clear 95 35 59 15 30 30 S 5 7 29.85 1011 10 16.09344 0 0
1:53 am 01:53 Clear 93 33.9 60 15.6 33 33 SSE 9 15 29.85 1011 10 16.09344 0 0
2:53 am 02:53 Clear 90 32.2 62 16.7 39 39 ESE 8 13 29.85 1011 10 16.09344 0 0
3:53 am 03:53 Clear 89 31.7 61 16.1 39 39 E 7 11 29.85 1011 10 16.09344 0 0
4:53 am 04:53 Clear 88 31.1 62 16.7 42 42 ENE 5 7 29.85 1011 10 16.09344 0 0
5:53 am 05:53 Sunny 88 31.1 62 16.7 42 42 NE 5 7 29.88 1012 10 16.09344 0 0
6:53 am 06:53 Sunny 89 31.7 64 17.8 43 43 ENE 7 11 29.91 1013 10 16.09344 0 0
7:53 am 07:53 Sunny 91 32.8 63 17.2 39 39 ESE 8 13 29.91 1013 10 16.09344 0 0
8:53 am 08:53 Sunny 94 34.4 63 17.2 36 36 N 5 7 29.91 1013 10 16.09344 0 0
10:53 am 10:53 Sunny 99 37.2 61 16.1 29 29 SE 6 9 29.91 1013 10 16.09344 0 0
11:53 am 11:53 Sunny 101 38.3 59 15 25 25 N 7 11 29.88 1012 10 16.09344 0 0
12:53 pm 12:53 Sunny 105 40.6 54 12.2 18 18 S 10 17 29.85 1011 10 16.09344 0 0
1:53 pm 13:53 Sunny 105 40.6 53 11.7 18 18 SSE 13 20 29.83 1010 10 16.09344 0 0
2:09 pm 14:09 Sunny with Nearby Thunderstorms 106 41.1 53 11.7 17 17 S 8 13 29.65 1004 10 16.09344 0 0
2:24 pm 14:24 Sunny 107 41.7 52 11.1 16 16 SSW 8 13 29.65 1004 10 16.09344 0 0
2:53 pm 14:53 Sunny with Nearby Thunderstorms 105 40.6 53 11.7 18 18 NNW 5 7 29.8 1009 10 16.09344 0 0
3:08 pm 15:08 Partly Cloudy 104 40 56 13.3 20 20 NW 23 37 29.65 1004 10 16.09344 0 0
3:17 pm 15:17 Partly Cloudy 104 40 56 13.3 20 20 NW 16 26 29.65 1004 10 16.09344 0 0
3:49 pm 15:49 Mostly Cloudy with Nearby Thunderstorms 106 41 55 13 19 19 NE 3 6 29.59 1002 10 16.09344 0 0
3:53 pm 15:53 Mostly Cloudy with Nearby Thunderstorms 105 40.6 55 12.8 19 19 N 5 7 29.77 1008 10 16.09344 0 0
4:04 pm 16:04 Mostly Sunny 105 40.6 55 12.8 19 19 N 5 7 29.59 1002 10 16.09344 0 0
4:53 pm 16:53 Sunny 106 41.1 55 12.8 19 19 SE 5 7 29.74 1007 10 16.09344 0 0
5:00 pm 17:00 Sunny with Nearby Thunderstorms 106 41.1 55 12.8 19 19 E 8 13 29.59 1002 10 16.09344 0 0
5:15 pm 17:15 Sunny with Thunderstorms 106 41.1 54 12.2 18 18 ESE 10 17 29.56 1001 10 16.09344 0 0
5:30 pm 17:30 Sunny with Nearby Thunderstorms 106 41.1 54 12.2 18 18 NNE 3 6 29.59 1002 10 16.09344 0 0
5:53 pm 17:53 Sunny with Nearby Thunderstorms 106 41.1 54 12.2 18 18 E 9 15 29.74 1007 10 16.09344 0 0
6:51 pm 18:51 Mostly Sunny 106 41 54 12 18 18 E 7 11 29.59 1002 10 16.09344 0 0
6:53 pm 18:53 Mostly Sunny 105 40.6 53 11.7 18 18 E 6 9 29.77 1008 10 16.09344 0 0
7:53 pm 19:53 Mostly Cloudy 103 39.4 57 13.9 22 22 ESE 10 17 29.77 1008 10 16.09344 0 0
8:53 pm 20:53 Mostly Cloudy 101 38.3 56 13.3 22 22 ESE 12 19 29.83 1010 10 16.09344 0 0
9:02 pm 21:02 Mostly Cloudy 96 35.6 55 12.8 25 25 E 26 43 29.74 1007 8 12.874752 0 0
9:53 pm 21:53 Mostly Cloudy 84 28.9 63 17.2 49 49 E 32 52 29.94 1014 10 16.09344 0 0
10:53 pm 22:53 Mostly Cloudy 81 27.2 64 17.8 57 57 NNW 12 19 30 1016 10 16.09344 0 0
11:00 pm 23:00 Partly Cloudy 81 27.2 65 18.3 58 58 NW 14 22 29.94 1014 10 16.09344 0 0
11:53 pm 23:53 Clear 82 27.8 63 17.2 53 53 Calm 29.97 1015 10 16.09344 0 0

Powered by AerisWeather